Location: Newark
(58.9986°N, 38.5006°E)
Time: 00:11:42
(UTC+00:00)

N. Korean satellite - Pass Details

Date: 12 December 2019
Orbit: 454 x 508 km, 97.2° (Epoch: 17 January)

Event Time Altitude Azimuth Distance (km) Brightness Sun altitude
Rises 13:15:27 0° 138° (SE) 2,604 10.2 -5.3°
Reaches altitude 10° 13:17:40 10° 129° (SE) 1,718 9.2 -5.5°
Maximum altitude 13:21:01 33° 64° (ENE) 857 7.3 -5.8°
Drops below altitude 10° 13:24:21 10° 359° (N) 1,708 9.0 -6.2°
Sets 13:26:33 0° 350° (N) 2,587 10.0 -6.4°
